Flight Track Log - Related Links

Times and Time Zones

All times are in EST time to prevent confusion due to time zone crossing. See the EJA829P flight status page for this flight to view local times or setup timezone preferences in your user account.

Time Position Orientation Groundspeed Altitude Reporting Facility
EST Latitude Longitude Course Direction KTS MPH feet Rate Location/Type
Tue 07:51:41 AM 39.0000 -77.4500 346° North 213 245 3,000  Level Potomac TRACON
Tue 07:53:18 AM 39.1092 -77.4856 346° North 239 275 6,500 2,544 Climbing Washington Center
Tue 07:54:19 AM 39.1819 -77.4847 North 251 289 9,700 2,951 Climbing Washington Center
Tue 07:55:20 AM 39.2656 -77.4814 North 280 322 12,500 2,975 Climbing Washington Center
Tue 07:56:18 AM 39.3550 -77.4758 North 295 339 15,600 3,231 Climbing Washington Center
Tue 07:58:22 AM 39.5586 -77.4631 North 370 426 22,300 2,440 Climbing New York Center
Tue 07:59:20 AM 39.6653 -77.4569 North 370 426 23,000 353 Climbing New York Center
Tue 08:00:21 AM 39.7717 -77.4564 360° North 375 432 23,000  Level New York Center
Tue 08:01:21 AM 39.8742 -77.4525 North 370 426 23,000  Level New York Center
Tue 08:02:22 AM 39.9703 -77.4508 North 359 413 23,000  Level New York Center
Tue 08:03:23 AM 40.0703 -77.4497 360° North 359 413 23,000  Level New York Center
Tue 08:04:21 AM 40.1656 -77.4614 355° North 354 407 23,000  Level New York Center
Tue 08:05:21 AM 40.2617 -77.4953 345° North 348 400 23,000  Level New York Center
Tue 08:06:22 AM 40.3556 -77.5289 345° North 348 400 23,000  Level New York Center
Tue 08:07:22 AM 40.4497 -77.5625 345° North 353 406 23,000  Level New York Center
Tue 08:08:23 AM 40.5417 -77.5964 344° North 353 406 23,000 -198 Level New York Center
Tue 08:09:23 AM 40.6253 -77.6264 345° North 353 406 22,600 -508 Descending New York Center
Tue 08:10:21 AM 40.7211 -77.6608 345° North 353 406 22,000 -305 Descending New York Center
Tue 08:11:21 AM 40.8150 -77.6947 345° North 353 406 22,000  Level New York Center
Tue 08:12:22 AM 40.9131 -77.7294 345° North 353 406 22,000  Level New York Center
Tue 08:14:52 AM 41.1514 -77.8175 344° North 347 399 22,000  Level Cleveland Center
Tue 08:15:54 AM 41.2414 -77.8497 345° North 341 392 22,000  Level Cleveland Center
Tue 08:16:56 AM 41.3314 -77.8825 345° North 339 390 22,000  Level Cleveland Center
Tue 08:17:58 AM 41.4217 -77.9167 344° North 340 391 22,000  Level Cleveland Center
Tue 08:19:00 AM 41.5300 -77.9553 345° North 339 390 22,000  Level Cleveland Center
Tue 08:20:02 AM 41.6194 -77.9894 344° North 338 389 22,000  Level Cleveland Center
Tue 08:21:04 AM 41.7083 -78.0208 345° North 335 386 22,000  Level Cleveland Center
Tue 08:22:06 AM 41.7992 -78.0558 344° North 338 389 22,000  Level Cleveland Center
Tue 08:23:08 AM 41.8900 -78.0892 345° North 340 391 22,000  Level Cleveland Center
Tue 08:24:10 AM 41.9903 -78.1269 344° North 340 391 22,000  Level Cleveland Center
Tue 08:25:12 AM 42.0808 -78.1606 345° North 339 390 22,000  Level Cleveland Center
Tue 08:26:14 AM 42.1717 -78.1947 344° North 338 389 22,000  Level Cleveland Center
Tue 08:27:16 AM 42.2806 -78.2350 345° North 338 389 22,000  Level Cleveland Center
Tue 08:28:18 AM 42.3717 -78.2703 344° North 339 390 22,000  Level Cleveland Center
Tue 08:29:21 AM 42.4619 -78.3058 344° North 338 389 22,000  Level Cleveland Center
Tue 08:30:23 AM 42.5533 -78.3394 345° North 338 389 22,000  Level Cleveland Center
Tue 08:31:25 AM 42.6450 -78.3744 344° North 340 391 22,000  Level Cleveland Center
Tue 08:32:27 AM 42.7364 -78.4106 344° North 342 394 22,000  Level Cleveland Center
Tue 08:34:31 AM 42.9386 -78.4886 344° North 343 395 22,000  Level Cleveland Center
Tue 08:35:33 AM 43.0294 -78.5228 345° North 341 392 22,000  Level Cleveland Center
Tue 08:36:35 AM 43.1211 -78.5589 344° North 341 392 22,000  Level Cleveland Center
Tue 08:37:37 AM 43.2100 -78.5939 344° North 335 386 22,000  Level Cleveland Center
Tue 08:38:39 AM 43.2992 -78.6289 344° North 334 384 22,000  Level Cleveland Center
Tue 08:39:41 AM 43.3903 -78.6633 345° North 338 389 22,000  Level Cleveland Center
Tue 08:40:43 AM 43.4994 -78.7061 344° North 339 390 22,000  Level Cleveland Center
Tue 08:41:37 AM 43.5667 -78.7167 354° North 340 391 22,000  Level Toronto Center
Tue 08:42:37 AM 43.6667 -78.7500 346° North 330 380 22,000  Level Toronto Center
Tue 08:43:37 AM 43.7500 -78.7833 344° North 340 391 22,000  Level Toronto Center
Tue 08:44:37 AM 43.8333 -78.8167 344° North 330 380 22,000  Level Toronto Center
Tue 08:45:37 AM 43.9333 -78.8667 340° North 330 380 22,000 -50 Level Toronto Center
Tue 08:46:37 AM 44.0167 -78.8833 352° North 320 368 21,900 -1,300 Descending Toronto Center
Tue 08:47:37 AM 44.1000 -78.9333 337° Northwest 320 368 19,400 -2,100 Descending Toronto Center
Tue 08:48:37 AM 44.1667 -78.9667 340° North 310 357 17,700 -1,900 Descending Toronto Center
Tue 08:49:37 AM 44.2500 -79.0000 344° North 300 345 15,600 -2,000 Descending Toronto Center
Tue 08:50:37 AM 44.3333 -79.0500 337° Northwest 290 334 13,700 -1,850 Descending Toronto Center
Tue 08:51:37 AM 44.4000 -79.0667 350° North 280 322 11,900 -1,750 Descending Toronto Center
Tue 08:52:37 AM 44.4667 -79.1000 340° North 250 288 10,200 -1,650 Descending Toronto Center
Tue 08:53:37 AM 44.5333 -79.1167 350° North 240 276 8,600 -1,650 Descending Toronto Center
Tue 08:54:37 AM 44.6000 -79.1667 332° Northwest 240 276 6,900 -1,500 Descending Toronto Center
Tue 08:55:37 AM 44.6500 -79.1833 347° North 210 242 5,600 -1,300 Descending Toronto Center
Tue 08:56:37 AM 44.7000 -79.1833 360° North 180 207 4,300 -1,300 Descending Toronto Center
Tue 08:58:00 AM 44.8191 -79.2341 347° North  Level FlightAware Approximate
Tue 09:05:00 AM 44.9667 -79.3000 180° South  Level FlightAware Approximate
Tue 09:06:00 AM 44.9747 -79.3033 180° South  Level Estimated
Tue 09:07:00 AM 44.9747 -79.3033 180° South  Level Estimated
Tue 09:08:00 AM 44.9747 -79.3033 180° South  Level Estimated
Tue 09:09:00 AM 44.9747 -79.3033 180° South  Level Estimated

Login

Don't have an account? Register now (free) for customized features, flight alerts, and more!